Regional Weather Roundup
Issued by NWS

Home | Current Version | Previous Version | Graphics & Text | Print | Product List | Glossary On
Versions: 1 2 3 4 5 6 7 8 9 10 11 12 13 14 15 16 17 18 19 20 21 22 23 24 25 26 27 28 29 30 31 32 33 34 35 36 37 38 39 40 41 42 43 44 45 46 47 48 49 50
000
ASUS43 KLSX 242057
RWRMO

WEATHER SUMMARY FOR MISSOURI
NATIONAL WEATHER SERVICE SPRINGFIELD MO
300 PM CST FRI FEB 24 2017

NOTE: "FAIR" INDICATES FEW OR NO CLOUDS BELOW 12,000 FEET WITH NO
       SIGNIFICANT WEATHER AND/OR OBSTRUCTIONS TO VISIBILITY.
       CURRENT SKY AND/OR WEATHER CONDITIONS ARE NOT AVAILABLE FOR
       CHILLICOTHE AND FARMINGTON.

MOZ001>031-035>038-043-044-053-054-242200-
...NORTHERN AND WESTERN MISSOURI...

CITY           SKY/WX    TMP DP  RH WIND       PRES   REMARKS
KANSAS CTY INT FLURRIES  32  26  78 NW15G25   29.78R WCI  22
LEE`S SUMMIT   CLOUDY    36  29  75 NW21      29.76R WCI  25
ST JOSEPH      LGT SNOW  30  27  88 NW21      29.81R FOG     WCI  17
CHILLICOTHE      N/A     36  31  82 W13G20    29.72R WCI  27

$$
MOZ066>068-077>081-088>096-101>105-242200-
...SOUTHWEST MISSOURI...

CITY           SKY/WX    TMP DP  RH WIND       PRES   REMARKS
SPRINGFIELD    MOSUNNY   49  28  44 MISG      29.74S
JOPLIN         MOSUNNY   48  28  46 W18G30    29.80R
BRANSON        MOSUNNY   50  32  50 W9G23     29.75F

$$
MOZ032>034-039>042-045>050-055>058-069>072-242200-
...CENTRAL MISSOURI...

CITY           SKY/WX    TMP DP  RH WIND       PRES   REMARKS
COLUMBIA       NOT AVBL
JEFFERSON CITY CLOUDY    46  32  58 SW20G26   29.69S
ROLLA          LGT RAIN  48  34  58 W17       29.68R
SEDALIA        CLOUDY    46  32  58 W21G29    29.71R
WARRENSBURG    CLOUDY    41  30  65 W20G26    29.73R

$$
MOZ051-052-059>065-242200-
...EAST CENTRAL MISSOURI...

CITY           SKY/WX    TMP DP  RH WIND       PRES   REMARKS
ST LOUIS INTL  PTSUNNY   58  39  49 W17G25    29.63S

$$
MOZ072>076-082>087-097>100-106>115-242200-
...SOUTH CENTRAL AND SOUTHEAST MISSOURI...

CITY           SKY/WX    TMP DP  RH WIND       PRES   REMARKS
CAPE GIRARDEAU CLOUDY    64  56  75 SW16      29.60R
POPLAR BLUFF   CLOUDY    65  52  62 W10G21    29.62R
WEST PLAINS    SUNNY     53  36  52 W15G23    29.72R

$$



USA.gov is the U.S. government's official web portal to all federal, state and local government web resources and services.